Weather History for Medford, OR

Change the Weather History Date:

Saturday, December 31, 2011

  Actual Average Record
Temperature  
Mean Temperature 36 °F 39 °F  
Max Temperature 43 °F 46 °F 62 °F (1939)
Min Temperature 28 °F 32 °F 12 °F (1918)
Degree Days  
Heating Degree Days 29 26  
Month to date heating degree days 912 794  
Since 1 July heating degree days 1770 1766  
Cooling Degree Days 0 0  
Month to date cooling degree days 0 0  
Year to date cooling degree days 783 829  
Moisture  
Dew Point 31 °F    
Average Humidity 79    
Maximum Humidity 100    
Minimum Humidity 57    
Precipitation  
Precipitation T in 0.10 in 0.89 in (1922)
Month to date precipitation 0.94 3.49  
Year to date precipitation 16.42 18.35  
Snow  
Snow 0.00 in 0.10 in - ()
Month to date snowfall T 1.5  
Since 1 July snowfall T 1.7  
Snow Depth 0.00 in    
Sea Level Pressure  
Sea Level Pressure 30.33 in    
Wind  
Wind Speed 1 mph (WSW)    
Max Wind Speed 7 mph    
Max Gust Speed 8 mph    
Visibility 3 miles    
Events Fog    
T = Trace of Precipitation, MM = Missing Value Source: NWS Daily Summary

Daily Weather History Graph

Daily Weather History Graph

Search for Another Location

Airport:

Trip Planner

Search our weather history database for the weather conditions in past years. The results will help you decide how hot, cold, wet, or windy it might be!

Date:

Astronomy

Dec. 31, 2011 Rise Set
Actual Time 7:40 AM PST 4:48 PM PST
Civil Twilight 7:08 AM PST 5:20 PM PST
Nautical Twilight 6:33 AM PST 5:55 PM PST
Astronomical Twilight 5:59 AM PST 6:29 PM PST
Moon 11:18 AM PST (12/31) No Moon Set
Length of Visible Light 10h 11m
Length of Day
9h 07m
Waxing Crescent, 46% of the Moon is Illuminated
Dec 31
Waxing Crescent
Dec 31
First Quarter
Jan 8
Full
Jan 16
Last Quarter
Jan 22
New

Hourly Weather History & Observations

Time (PST) Temp. Windchill Dew Point Humidity Pressure Visibility Wind Dir Wind Speed Gust Speed Precip Events Conditions
12:53 AM 30.9 °F - 30.0 °F 96% 30.38 in 1.0 mi Calm Calm - N/A   Mist
1:00 AM 30.2 °F - 28.4 °F 93% 30.35 in 0.5 mi Calm Calm - N/A Fog Light Freezing Fog
1:23 AM 30.2 °F - 30.2 °F 100% 30.36 in 1.0 mi Calm Calm - N/A   Clear
1:39 AM 30.2 °F - 30.2 °F 100% 30.36 in 1.8 mi Calm Calm - N/A   Partly Cloudy
1:53 AM 30.0 °F - 28.9 °F 96% 30.38 in 0.5 mi Calm Calm - N/A Fog Light Freezing Fog
1:56 AM 30.2 °F - 28.4 °F 93% 30.36 in 0.2 mi Calm Calm - N/A Fog Light Freezing Fog
2:24 AM 28.4 °F - 28.4 °F 100% 30.38 in 0.2 mi Calm Calm - N/A Fog Light Freezing Fog
2:43 AM 30.2 °F 26.7 °F 28.4 °F 93% 30.39 in 0.2 mi SW 3.5 mph - N/A Fog Light Freezing Fog
2:53 AM 30.0 °F - 28.9 °F 96% 30.42 in 0.2 mi Calm Calm - N/A Fog Light Freezing Fog
3:12 AM 30.2 °F - 30.2 °F 100% 30.40 in 0.2 mi Calm Calm - N/A Fog Light Freezing Fog
3:40 AM 30.2 °F - 28.4 °F 93% 30.39 in 0.2 mi Calm Calm - N/A Fog Light Freezing Fog
3:53 AM 30.2 °F - 28.4 °F 93% 30.39 in 0.2 mi Calm Calm - N/A Fog Light Freezing Fog
4:03 AM 30.2 °F 26.7 °F 28.4 °F 93% 30.38 in 0.2 mi West 3.5 mph - N/A Fog Light Freezing Fog
4:26 AM 30.2 °F 26.7 °F 30.2 °F 100% 30.38 in 0.2 mi West 3.5 mph - N/A Fog Light Freezing Fog
4:39 AM 30.2 °F - 30.2 °F 100% 30.38 in 0.5 mi Calm Calm - N/A Fog Light Freezing Fog
4:53 AM 30.9 °F - 30.0 °F 96% 30.40 in 0.8 mi Calm Calm - N/A   Mist
5:53 AM 30.9 °F - 30.9 °F 100% 30.39 in 0.8 mi Calm Calm - N/A   Mist
6:53 AM 30.9 °F - 30.0 °F 96% 30.36 in 0.5 mi Calm Calm - N/A Fog Light Freezing Fog
7:39 AM 30.2 °F 24.3 °F 30.2 °F 100% 30.34 in 0.5 mi NW 5.8 mph - 0.00 in Fog Light Freezing Fog
7:53 AM 30.9 °F - 30.0 °F 96% 30.37 in 0.5 mi Calm Calm - 0.00 in Fog Light Freezing Fog
8:53 AM 30.9 °F - 30.0 °F 96% 30.38 in 0.2 mi Calm Calm - N/A Fog Light Freezing Fog
9:10 AM 30.2 °F - 30.2 °F 100% 30.34 in 0.2 mi Calm Calm - N/A Fog Light Freezing Fog
9:51 AM 30.2 °F - 30.2 °F 100% 30.34 in 0.5 mi Calm Calm - N/A Fog Light Freezing Fog
9:53 AM 30.9 °F - 30.9 °F 100% 30.37 in 0.5 mi Calm Calm - N/A Fog Light Freezing Fog
10:19 AM 30.2 °F - 30.2 °F 100% 30.34 in 0.5 mi Calm Calm - N/A Fog Light Freezing Fog
10:38 AM 30.2 °F - 30.2 °F 100% 30.33 in 0.5 mi Calm Calm - N/A Fog Light Freezing Fog
10:53 AM 30.9 °F - 30.9 °F 100% 30.36 in 0.5 mi Calm Calm - N/A Fog Light Freezing Fog
11:11 AM 32.0 °F - 30.2 °F 93% 30.31 in 1.0 mi Calm Calm - N/A   Overcast
11:28 AM 32.0 °F - 30.2 °F 93% 30.30 in 4.0 mi Calm Calm - N/A   Overcast
11:53 AM 32.0 °F - 30.9 °F 96% 30.33 in 4.0 mi Calm Calm - N/A   Mostly Cloudy
12:19 PM 33.8 °F 30.8 °F 32.0 °F 93% 30.28 in 10.0 mi ESE 3.5 mph - N/A   Partly Cloudy
12:53 PM 36.0 °F - 32.0 °F 86% 30.29 in 10.0 mi Calm Calm - N/A   Clear
1:53 PM 41.0 °F - 33.1 °F 73% 30.29 in 10.0 mi Calm Calm - N/A   Scattered Clouds
2:53 PM 42.1 °F - 30.9 °F 65% 30.28 in 10.0 mi Calm Calm - N/A   Mostly Cloudy
3:53 PM 43.0 °F 41.3 °F 28.9 °F 58% 30.29 in 10.0 mi SW 3.5 mph - N/A   Overcast
4:53 PM 41.0 °F 38.0 °F 33.1 °F 73% 30.25 in 10.0 mi NNE 4.6 mph - N/A   Overcast
5:53 PM 39.0 °F - 35.1 °F 86% 30.24 in 10.0 mi Calm Calm - N/A   Clear
6:53 PM 39.0 °F - 35.1 °F 86% 30.26 in 10.0 mi Calm Calm - N/A   Clear
7:53 PM 39.0 °F - 35.1 °F 86% 30.27 in 10.0 mi Calm Calm - N/A   Clear
8:53 PM 37.4 °F 34.9 °F 35.6 °F 93% 30.24 in 10.0 mi South 3.5 mph - N/A   Clear
9:53 PM 34.0 °F 31.0 °F 32.0 °F 92% 30.29 in 9.0 mi North 3.5 mph - N/A   Clear
10:53 PM 35.1 °F - 33.1 °F 92% 30.30 in 5.0 mi Calm Calm - N/A   Clear
11:30 PM 33.8 °F - 30.2 °F 87% 30.27 in 2.0 mi Calm Calm - N/A   Clear
11:37 PM 32.0 °F - 30.2 °F 93% 30.27 in 1.8 mi Calm Calm - N/A   Clear
11:43 PM 33.8 °F - 30.2 °F 87% 30.28 in 3.0 mi Calm Calm - N/A   Clear
11:53 PM 33.8 °F 29.6 °F 32.0 °F 93% 30.27 in 6.0 mi SSE 4.6 mph - N/A   Clear